{"data":{"norad_id":47231,"epoch":"2026-09-20T23:17:59.542656Z","epoch_age_seconds":38618,"freshness":"FRESH","line1":"1 47231U 20092A   26263.97082804  .00003015  00000+0  12083-3 0  9992","line2":"2 47231  97.4640 334.0607 0005902 159.7273 200.4201 15.25797989322437","mean_motion":15.25797989,"eccentricity":0.0005902,"inclination_deg":97.464,"raan_deg":334.0607,"arg_perigee_deg":159.7273,"mean_anomaly_deg":200.4201,"bstar":0.00012083,"rev_number":32243,"period_min":94.376844797375,"perigee_km":484.33764631628,"apogee_km":492.44289510663,"semimajor_km":6866.5272707115,"source":"CELESTRAK","updated_at":"2026-09-21T09:00:07.475246Z"}}